Change the Weather History Date:

Wednesday, February 1, 2012

  Actual Average (KBKW) Record (KBKW)
Temperature  
Mean Temperature 49 °F 32 °F  
Max Temperature 57 °F 40 °F 68 °F (1988)
Min Temperature 41 °F 24 °F -6 °F (1899)
Degree Days  
Heating Degree Days 16 33  
Month to date heating degree days 33  
Since 1 July heating degree days 3177  
Cooling Degree Days 0 0  
Month to date cooling degree days 0  
Year to date cooling degree days 0  
Moisture  
Dew Point 46 °F    
Average Humidity 86    
Maximum Humidity 100    
Minimum Humidity 66    
Precipitation  
Precipitation 0.00 in 0.09 in 0.95 in (1950)
Month to date precipitation 0.09  
Year to date precipitation 2.90  
Snow  
Snow 0.00 in - - ()
Since 1 September snowfall  
Snow Depth -    
Sea Level Pressure  
Sea Level Pressure 30.17 in    
Wind  
Wind Speed 0 mph (NW)    
Max Wind Speed 4 mph    
Max Gust Speed -    
Visibility 10 miles    
Events Rain    
T = Trace of Precipitation, MM = Missing Value Source: NWS Daily Summary

Daily Weather History Graph

Daily Weather History Graph

Search for Another Location

Airport or City:

Trip Planner

Search our weather history database for the weather conditions in past years. The results will help you decide how hot, cold, wet, or windy it might be!

Date:

Astronomy

Feb. 01, 2012 Rise Set
Actual Time 7:30 AM EST 5:49 PM EST
Civil Twilight 7:02 AM EST 6:17 PM EST
Nautical Twilight 6:31 AM EST 6:48 PM EST
Astronomical Twilight 6:00 AM EST 7:19 PM EST
Moon 12:18 PM EST (2/1) 2:13 AM EST (2/1)
Length of Visible Light 11h 14m
Length of Day
10h 19m
Waxing Gibbous, 64% of the Moon is Illuminated
Feb 1
Waxing Gibbous
Feb 7
Full
Feb 14
Last Quarter
Feb 21
New
Feb 29
First Quarter

Hourly Weather History & Observations

Time (EST) Temp. Dew Point Humidity Pressure Visibility Wind Dir Wind Speed Gust Speed Precip Events Conditions
12:15 AM 41.0 °F 33.8 °F 76% 30.21 in 10.0 mi Calm Calm - N/A   Mostly Cloudy
12:35 AM 41.0 °F 33.8 °F 76% 30.20 in 10.0 mi Calm Calm - N/A   Overcast
12:55 AM 42.8 °F 33.8 °F 70% 30.20 in 10.0 mi Calm Calm - N/A   Overcast
1:15 AM 42.8 °F 33.8 °F 70% 30.20 in 10.0 mi Calm Calm - N/A   Overcast
1:35 AM 44.6 °F 33.8 °F 66% 30.20 in 10.0 mi Calm Calm - N/A   Overcast
1:55 AM 44.6 °F 33.8 °F 66% 30.20 in 10.0 mi Calm Calm - N/A   Mostly Cloudy
2:15 AM 42.8 °F 35.6 °F 76% 30.21 in 10.0 mi Calm Calm - N/A   Mostly Cloudy
2:35 AM 44.6 °F 35.6 °F 71% 30.21 in 10.0 mi Calm Calm - N/A   Overcast
2:55 AM 44.6 °F 35.6 °F 71% 30.20 in 10.0 mi Calm Calm - N/A   Overcast
3:15 AM 46.4 °F 35.6 °F 66% 30.20 in 10.0 mi Calm Calm - N/A   Overcast
3:35 AM 46.4 °F 35.6 °F 66% 30.19 in 10.0 mi Calm Calm - N/A   Overcast
3:55 AM 46.4 °F 35.6 °F 66% 30.19 in 10.0 mi Calm Calm - N/A   Overcast
4:15 AM 46.4 °F 37.4 °F 71% 30.18 in 10.0 mi Calm Calm - N/A   Overcast
4:35 AM 46.4 °F 37.4 °F 71% 30.18 in 10.0 mi Calm Calm - N/A   Overcast
4:55 AM 46.4 °F 39.2 °F 76% 30.18 in 10.0 mi Calm Calm - N/A Rain Light Rain
5:15 AM 46.4 °F 41.0 °F 81% 30.18 in 10.0 mi Calm Calm - N/A   Overcast
5:35 AM 46.4 °F 41.0 °F 81% 30.18 in 10.0 mi Calm Calm - N/A   Overcast
5:55 AM 46.4 °F 42.8 °F 87% 30.19 in 10.0 mi Calm Calm - N/A Rain Light Rain
6:15 AM 46.4 °F 44.6 °F 93% 30.18 in 10.0 mi Calm Calm - N/A   Light Drizzle
6:35 AM 46.4 °F 44.6 °F 93% 30.19 in 10.0 mi Calm Calm - N/A Rain Light Rain
6:55 AM 46.4 °F 44.6 °F 93% 30.19 in 10.0 mi Calm Calm - N/A Rain Light Rain
7:15 AM 46.4 °F 44.6 °F 93% 30.20 in 10.0 mi Calm Calm - N/A Rain Light Rain
7:35 AM 46.4 °F 46.4 °F 100% 30.20 in 10.0 mi Calm Calm - N/A   Overcast
7:55 AM 46.4 °F 46.4 °F 100% 30.21 in 10.0 mi Calm Calm - N/A   Overcast
8:15 AM 46.4 °F 46.4 °F 100% 30.21 in 10.0 mi Calm Calm - N/A   Overcast
8:35 AM 46.4 °F 46.4 °F 100% 30.21 in 10.0 mi Calm Calm - N/A   Light Drizzle
8:55 AM 50.0 °F 46.4 °F 87% 30.22 in 10.0 mi Calm Calm - N/A Rain Light Rain
9:15 AM 50.0 °F 48.2 °F 94% 30.21 in 10.0 mi Calm Calm - N/A Rain Light Rain
9:35 AM 50.0 °F 48.2 °F 94% 30.22 in 10.0 mi Calm Calm - N/A   Overcast
9:55 AM 51.8 °F 48.2 °F 88% 30.21 in 10.0 mi Calm Calm - N/A   Overcast
10:15 AM 51.8 °F 50.0 °F 94% 30.21 in 10.0 mi Calm Calm - N/A   Overcast
10:35 AM 51.8 °F 50.0 °F 94% 30.22 in 10.0 mi Calm Calm - N/A Rain Light Rain
10:55 AM 53.6 °F 46.4 °F 77% 30.22 in 10.0 mi Calm Calm - N/A   Overcast
11:15 AM 55.4 °F 48.2 °F 77% 30.22 in 10.0 mi Calm Calm - N/A   Overcast
11:35 AM 53.6 °F 50.0 °F 88% 30.20 in 10.0 mi Calm Calm - N/A   Light Drizzle
11:55 AM 53.6 °F 50.0 °F 88% 30.20 in 10.0 mi Calm Calm - N/A   Overcast
12:15 PM 55.4 °F 50.0 °F 82% 30.19 in 10.0 mi Calm Calm - N/A   Overcast
12:35 PM 55.4 °F 50.0 °F 82% 30.18 in 10.0 mi NW 3.5 mph - N/A   Overcast
12:55 PM 55.4 °F 50.0 °F 82% 30.17 in 10.0 mi Calm Calm - N/A   Overcast
1:15 PM 55.4 °F 50.0 °F 82% 30.16 in 10.0 mi Calm Calm - N/A   Overcast
1:35 PM 55.4 °F 50.0 °F 82% 30.16 in 10.0 mi Calm Calm - N/A   Overcast
1:55 PM 55.4 °F 51.8 °F 88% 30.14 in 10.0 mi Calm Calm - N/A   Overcast
2:15 PM 55.4 °F 51.8 °F 88% 30.13 in 10.0 mi Calm Calm - N/A   Overcast
2:35 PM 55.4 °F 51.8 °F 88% 30.13 in 10.0 mi Calm Calm - N/A   Overcast
2:55 PM 55.4 °F 51.8 °F 88% 30.14 in 10.0 mi Calm Calm - N/A   Overcast
3:15 PM 57.2 °F 51.8 °F 82% 30.13 in 10.0 mi Calm Calm - N/A   Overcast
3:35 PM 57.2 °F 51.8 °F 82% 30.13 in 10.0 mi Calm Calm - N/A   Overcast
3:55 PM 57.2 °F 51.8 °F 82% 30.14 in 10.0 mi Calm Calm - N/A   Overcast
4:15 PM 55.4 °F 51.8 °F 88% 30.13 in 10.0 mi Calm Calm - N/A   Overcast
4:35 PM 55.4 °F 51.8 °F 88% 30.12 in 10.0 mi Calm Calm - N/A   Overcast
4:55 PM 55.4 °F 51.8 °F 88% 30.13 in 10.0 mi Calm Calm - N/A   Overcast
5:15 PM 53.6 °F 51.8 °F 94% 30.12 in 10.0 mi Calm Calm - N/A   Overcast
5:35 PM 53.6 °F 51.8 °F 94% 30.12 in 10.0 mi Calm Calm - N/A   Light Drizzle
5:55 PM 53.6 °F 51.8 °F 94% 30.12 in 10.0 mi Calm Calm - N/A   Light Drizzle
6:15 PM 53.6 °F 51.8 °F 94% 30.12 in 10.0 mi Calm Calm - N/A   Light Drizzle
6:35 PM 51.8 °F 51.8 °F 100% 30.12 in 10.0 mi Calm Calm - N/A   Light Drizzle
6:55 PM 51.8 °F 51.8 °F 100% 30.11 in 10.0 mi Calm Calm - N/A   Light Drizzle
7:15 PM 51.8 °F 51.8 °F 100% 30.11 in 10.0 mi Calm Calm - N/A   Overcast
7:35 PM 51.8 °F 51.8 °F 100% 30.11 in 10.0 mi Calm Calm - N/A   Overcast
7:55 PM 51.8 °F 51.8 °F 100% 30.12 in 10.0 mi Calm Calm - N/A   Overcast
8:15 PM 51.8 °F 51.8 °F 100% 30.11 in 7.0 mi Calm Calm - N/A   Overcast
8:35 PM 51.8 °F 51.8 °F 100% 30.11 in 10.0 mi Calm Calm - N/A   Overcast
8:55 PM 51.8 °F 51.8 °F 100% 30.11 in 10.0 mi Calm Calm - N/A   Overcast
9:15 PM 51.8 °F 51.8 °F 100% 30.10 in 7.0 mi Calm Calm - N/A Rain Light Rain
9:35 PM 51.8 °F 51.8 °F 100% 30.11 in 7.0 mi Calm Calm - N/A   Light Drizzle
9:55 PM 51.8 °F 51.8 °F 100% 30.10 in 7.0 mi Calm Calm - N/A   Overcast
10:15 PM 51.8 °F 51.8 °F 100% 30.10 in 1.8 mi Calm Calm - N/A Rain Light Rain
10:35 PM 51.8 °F 51.8 °F 100% 30.09 in 7.0 mi Calm Calm - N/A   Overcast
10:55 PM 51.8 °F 51.8 °F 100% 30.09 in 4.0 mi Calm Calm - N/A   Overcast
11:15 PM 51.8 °F 51.8 °F 100% 30.09 in 3.0 mi Calm Calm - N/A   Overcast
11:35 PM 51.8 °F 51.8 °F 100% 30.09 in 3.0 mi Calm Calm - N/A   Overcast
11:55 PM 50.0 °F 50.0 °F 100% 30.08 in 2.5 mi Calm Calm - N/A   Overcast